| time (UTC) | temp F | wind direction | speed MPH | gust MPH | rain 1hr in | rain 24hr in | rain mn in | humidity % | barometer mb |
| 20260507072702 | 61 | 319 | 1.0 | 3.0 | 0.00 | 0.00 | 0.00 | 78 | 1017.9 |
| 20260507071702 | 61 | 279 | 1.0 | 3.0 | 0.00 | 0.00 | 0.00 | 77 | 1018.0 |
| 20260507070702 | 61 | 326 | 1.0 | 2.0 | 0.00 | 0.00 | 0.00 | 76 | 1017.9 |
| 20260507065702 | 61 | 327 | 1.0 | 2.0 | 0.00 | 0.00 | 0.00 | 76 | 1018.1 |
| 20260507064702 | 61 | 327 | 0.0 | 2.0 | 0.00 | 0.00 | 0.00 | 76 | 1018.0 |
| 20260507063702 | 61 | 306 | 0.0 | 1.0 | 0.00 | 0.00 | 0.00 | 76 | 1018.2 |
| 20260507062702 | 61 | 305 | 0.0 | 2.0 | 0.00 | 0.00 | 0.00 | 75 | 1018.1 |
| 20260507061702 | 61 | 304 | 1.0 | 3.0 | 0.00 | 0.00 | 0.00 | 75 | 1018.1 |
| 20260507060703 | 62 | 305 | 0.0 | 1.0 | 0.00 | 0.00 | 0.00 | 74 | 1018.1 |
| 20260507055702 | 62 | 309 | 0.0 | 2.0 | 0.00 | 0.00 | 0.00 | 73 | 1018.1 |
| 20260507054702 | 62 | 298 | 1.0 | 2.0 | 0.00 | 0.00 | 0.00 | 73 | 1018.1 |
| 20260507053702 | 62 | 278 | 2.0 | 3.0 | 0.00 | 0.00 | 0.00 | 72 | 1018.0 |
| 20260507052702 | 62 | 301 | 1.0 | 4.0 | 0.00 | 0.00 | 0.00 | 72 | 1018.0 |
| 20260507051702 | 62 | 274 | 1.0 | 4.0 | 0.00 | 0.00 | 0.00 | 72 | 1017.9 |
| 20260507050702 | 62 | 305 | 4.0 | 5.0 | 0.00 | 0.00 | 0.00 | 71 | 1017.9 |
| 20260507045702 | 63 | 244 | 2.0 | 4.0 | 0.00 | 0.00 | 0.00 | 70 | 1017.9 |
| 20260507044702 | 63 | 284 | 2.0 | 4.0 | 0.00 | 0.00 | 0.00 | 68 | 1018.0 |
| 20260507043702 | 63 | 284 | 4.0 | 5.0 | 0.00 | 0.00 | 0.00 | 66 | 1017.9 |
| 20260507042702 | 64 | 266 | 3.0 | 4.0 | 0.00 | 0.00 | 0.00 | 65 | 1017.8 |
| 20260507041702 | 64 | 277 | 2.0 | 3.0 | 0.00 | 0.00 | 0.00 | 65 | 1017.8 |
| 20260507040702 | 64 | 295 | 1.0 | 6.0 | 0.00 | 0.00 | 0.00 | 65 | 1017.6 |
| 20260507035702 | 64 | 304 | 3.0 | 5.0 | 0.00 | 0.00 | 0.00 | 65 | 1017.5 |
| 20260507034702 | 64 | 324 | 2.0 | 5.0 | 0.00 | 0.00 | 0.00 | 64 | 1017.6 |
| 20260507033702 | 65 | 283 | 5.0 | 6.0 | 0.00 | 0.00 | 0.00 | 62 | 1017.3 |
| 20260507032702 | 65 | 275 | 4.0 | 9.0 | 0.00 | 0.00 | 0.00 | 62 | 1017.2 |
| 20260507031702 | 65 | 322 | 2.0 | 4.0 | 0.00 | 0.00 | 0.00 | 61 | 1017.1 |
| 20260507030702 | 66 | 265 | 6.0 | 9.0 | 0.00 | 0.00 | 0.00 | 61 | 1017.0 |
| 20260507025702 | 67 | 270 | 3.0 | 5.0 | 0.00 | 0.00 | 0.00 | 59 | 1016.9 |
| 20260507024702 | 67 | 264 | 2.0 | 4.0 | 0.00 | 0.00 | 0.00 | 59 | 1016.9 |
| 20260507023702 | 68 | 274 | 5.0 | 9.0 | 0.00 | 0.00 | 0.00 | 57 | 1016.7 |
| 20260507022702 | 69 | 277 | 4.0 | 5.0 | 0.00 | 0.00 | 0.00 | 57 | 1016.6 |
| 20260507021702 | 69 | 253 | 3.0 | 6.0 | 0.00 | 0.00 | 0.00 | 57 | 1016.6 |
| 20260507020702 | 70 | 293 | 2.0 | 5.0 | 0.00 | 0.00 | 0.00 | 55 | 1016.4 |
| 20260507015702 | 71 | 244 | 2.0 | 5.0 | 0.00 | 0.00 | 0.00 | 55 | 1016.4 |
| 20260507014702 | 71 | 237 | 4.0 | 6.0 | 0.00 | 0.00 | 0.00 | 59 | 1016.4 |
| 20260507013702 | 71 | 215 | 4.0 | 9.0 | 0.00 | 0.00 | 0.00 | 57 | 1016.3 |
| 20260507012702 | 71 | 194 | 6.0 | 8.0 | 0.00 | 0.00 | 0.00 | 56 | 1016.2 |
| 20260507011702 | 71 | 234 | 4.0 | 8.0 | 0.00 | 0.00 | 0.00 | 57 | 1016.2 |
| 20260507010702 | 71 | 199 | 3.0 | 9.0 | 0.00 | 0.00 | 0.00 | 54 | 1016.1 |
| 20260507005702 | 72 | 131 | 4.0 | 10.0 | 0.00 | 0.00 | 0.00 | 49 | 1016.1 |
| 20260507004702 | 72 | 181 | 8.0 | 10.0 | 0.00 | 0.00 | 0.00 | 49 | 1016.1 |
| 20260507003702 | 72 | 209 | 5.0 | 10.0 | 0.00 | 0.00 | 0.00 | 48 | 1016.2 |
| 20260507002702 | 73 | 219 | 4.0 | 9.0 | 0.00 | 0.00 | 0.00 | 51 | 1016.1 |
| 20260507001702 | 73 | 180 | 10.0 | 15.0 | 0.00 | 0.00 | 0.00 | 50 | 1016.1 |
| 20260507000702 | 74 | 170 | 5.0 | 6.0 | 0.00 | 0.00 | 0.00 | 50 | 1016.0 |
| 20260506235702 | 73 | 201 | 6.0 | 11.0 | 0.00 | 0.00 | 0.00 | 50 | 1016.0 |
| 20260506234702 | 73 | 185 | 5.0 | 8.0 | 0.00 | 0.00 | 0.00 | 50 | 1016.1 |
| 20260506233702 | 73 | 189 | 7.0 | 10.0 | 0.00 | 0.00 | 0.00 | 50 | 1016.1 |
| 20260506232702 | 73 | 207 | 4.0 | 11.0 | 0.00 | 0.00 | 0.00 | 49 | 1016.1 |
| 20260506231702 | 74 | 235 | 7.0 | 10.0 | 0.00 | 0.00 | 0.00 | 48 | 1016.1 |
| 20260506230702 | 72 | 243 | 5.0 | 9.0 | 0.00 | 0.00 | 0.00 | 50 | 1016.3 |
| 20260506225702 | 73 | 225 | 9.0 | 11.0 | 0.00 | 0.00 | 0.00 | 50 | 1016.5 |
| 20260506224702 | 74 | 237 | 7.0 | 11.0 | 0.00 | 0.00 | 0.00 | 48 | 1016.5 |
| 20260506223702 | 74 | 252 | 7.0 | 10.0 | 0.00 | 0.00 | 0.00 | 49 | 1016.6 |
| 20260506222702 | 73 | 197 | 4.0 | 8.0 | 0.00 | 0.00 | 0.00 | 48 | 1016.6 |
| 20260506221702 | 74 | 243 | 8.0 | 10.0 | 0.00 | 0.00 | 0.00 | 46 | 1016.8 |
| 20260506220702 | 75 | 234 | 4.0 | 9.0 | 0.00 | 0.00 | 0.00 | 44 | 1016.9 |
| 20260506215702 | 75 | 237 | 6.0 | 9.0 | 0.00 | 0.00 | 0.00 | 43 | 1017.0 |
| 20260506214702 | 75 | 247 | 6.0 | 10.0 | 0.00 | 0.00 | 0.00 | 43 | 1017.1 |
| 20260506213702 | 75 | 253 | 6.0 | 9.0 | 0.00 | 0.00 | 0.00 | 44 | 1017.2 |
| 20260506212702 | 74 | 197 | 4.0 | 8.0 | 0.00 | 0.00 | 0.00 | 45 | 1017.2 |
| 20260506211702 | 75 | 196 | 2.0 | 8.0 | 0.00 | 0.00 | 0.00 | 44 | 1017.3 |
| 20260506210702 | 75 | 193 | 7.0 | 10.0 | 0.00 | 0.00 | 0.00 | 45 | 1017.5 |
| 20260506205702 | 74 | 271 | 3.0 | 5.0 | 0.00 | 0.00 | 0.00 | 46 | 1017.6 |
| 20260506204702 | 73 | 325 | 4.0 | 9.0 | 0.00 | 0.00 | 0.00 | 47 | 1017.6 |
| 20260506203702 | 75 | 259 | 2.0 | 4.0 | 0.00 | 0.00 | 0.00 | 45 | 1017.7 |
| 20260506202702 | 74 | 158 | 4.0 | 8.0 | 0.00 | 0.00 | 0.00 | 47 | 1017.9 |
| 20260506201702 | 75 | 138 | 3.0 | 9.0 | 0.00 | 0.00 | 0.00 | 46 | 1017.9 |
| 20260506200702 | 74 | 218 | 4.0 | 8.0 | 0.00 | 0.00 | 0.00 | 48 | 1018.2 |
| 20260506195702 | 74 | 165 | 4.0 | 9.0 | 0.00 | 0.00 | 0.00 | 47 | 1018.3 |
| 20260506194702 | 74 | 196 | 2.0 | 6.0 | 0.00 | 0.00 | 0.00 | 48 | 1018.2 |
| 20260506193702 | 74 | 198 | 8.0 | 17.0 | 0.00 | 0.00 | 0.00 | 48 | 1018.4 |
| 20260506192702 | 72 | 180 | 1.0 | 8.0 | 0.00 | 0.00 | 0.00 | 51 | 1018.4 |
| 20260506191702 | 73 | 253 | 9.0 | 11.0 | 0.00 | 0.00 | 0.00 | 50 | 1018.5 |
| 20260506190702 | 74 | 285 | 4.0 | 6.0 | 0.00 | 0.00 | 0.00 | 49 | 1018.5 |
| 20260506185702 | 72 | 280 | 6.0 | 11.0 | 0.00 | 0.00 | 0.00 | 52 | 1018.8 |
| 20260506184702 | 72 | 264 | 4.0 | 8.0 | 0.00 | 0.00 | 0.00 | 52 | 1018.8 |
| 20260506183703 | 73 | 236 | 3.0 | 3.0 | 0.00 | 0.00 | 0.00 | 50 | 1018.9 |
| 20260506182702 | 69 | 306 | 3.0 | 8.0 | 0.00 | 0.00 | 0.00 | 52 | 1018.9 |
| 20260506181702 | 71 | 307 | 5.0 | 10.0 | 0.00 | 0.00 | 0.00 | 49 | 1019.0 |
| 20260506180702 | 69 | 187 | 2.0 | 8.0 | 0.00 | 0.00 | 0.00 | 53 | 1019.0 |
| 20260506175702 | 71 | 74 | 3.0 | 4.0 | 0.00 | 0.00 | 0.00 | 50 | 1019.0 |
| 20260506174702 | 72 | 155 | 6.0 | 9.0 | 0.00 | 0.00 | 0.00 | 49 | 1019.0 |
| 20260506173702 | 71 | 251 | 2.0 | 5.0 | 0.00 | 0.00 | 0.00 | 48 | 1019.0 |
| 20260506172702 | 70 | 155 | 0.0 | 1.0 | 0.00 | 0.00 | 0.00 | 50 | 1019.1 |
| 20260506171702 | 71 | 103 | 2.0 | 3.0 | 0.00 | 0.00 | 0.00 | 50 | 1019.0 |
| 20260506170702 | 69 | 227 | 0.0 | 4.0 | 0.00 | 0.00 | 0.00 | 51 | 1019.1 |
| 20260506165702 | 69 | 202 | 3.0 | 5.0 | 0.00 | 0.00 | 0.00 | 50 | 1019.1 |
| 20260506164702 | 68 | 131 | 4.0 | 5.0 | 0.00 | 0.00 | 0.00 | 52 | 1019.0 |
| 20260506163702 | 68 | 130 | 3.0 | 4.0 | 0.00 | 0.00 | 0.00 | 54 | 1019.1 |
| 20260506162702 | 68 | 142 | 2.0 | 5.0 | 0.00 | 0.00 | 0.00 | 55 | 1019.1 |
| 20260506161702 | 68 | 193 | 2.0 | 8.0 | 0.00 | 0.00 | 0.00 | 55 | 1019.0 |
| 20260506160702 | 66 | 127 | 2.0 | 5.0 | 0.00 | 0.00 | 0.00 | 59 | 1019.0 |
| 20260506155702 | 67 | 171 | 0.0 | 4.0 | 0.00 | 0.00 | 0.00 | 58 | 1019.1 |
| 20260506154702 | 66 | 143 | 0.0 | 2.0 | 0.00 | 0.00 | 0.00 | 59 | 1019.2 |
| 20260506153702 | 66 | 75 | 2.0 | 5.0 | 0.00 | 0.00 | 0.00 | 60 | 1019.3 |
| 20260506152702 | 65 | 58 | 1.0 | 3.0 | 0.00 | 0.00 | 0.00 | 60 | 1019.3 |
| 20260506151702 | 64 | 57 | 0.0 | 2.0 | 0.00 | 0.00 | 0.00 | 62 | 1019.3 |
| 20260506150702 | 63 | 57 | 1.0 | 3.0 | 0.00 | 0.00 | 0.00 | 62 | 1019.3 |
| 20260506145702 | 63 | 57 | 1.0 | 3.0 | 0.00 | 0.00 | 0.00 | 63 | 1019.2 |
| 20260506144702 | 62 | 58 | 2.0 | 4.0 | 0.00 | 0.00 | 0.00 | 63 | 1019.3 |
| 20260506143702 | 61 | 73 | 1.0 | 3.0 | 0.00 | 0.00 | 0.00 | 66 | 1019.0 |
| 20260506142702 | 60 | 80 | 2.0 | 3.0 | 0.00 | 0.00 | 0.00 | 68 | 1019.1 |
| 20260506141702 | 60 | 52 | 2.0 | 4.0 | 0.00 | 0.00 | 0.00 | 69 | 1019.1 |
| 20260506140702 | 58 | 85 | 2.0 | 3.0 | 0.00 | 0.00 | 0.00 | 71 | 1019.0 |
| 20260506135702 | 57 | 78 | 0.0 | 2.0 | 0.00 | 0.00 | 0.00 | 70 | 1019.0 |
| 20260506134702 | 57 | 77 | 2.0 | 2.0 | 0.00 | 0.00 | 0.00 | 70 | 1018.9 |
| 20260506133702 | 54 | 84 | 0.0 | 1.0 | 0.00 | 0.00 | 0.00 | 75 | 1018.8 |
| 20260506132702 | 54 | 84 | 0.0 | 2.0 | 0.00 | 0.00 | 0.00 | 75 | 1018.6 |
| 20260506131703 | 54 | 86 | 1.0 | 3.0 | 0.00 | 0.00 | 0.00 | 75 | 1018.6 |
| 20260506130702 | 53 | 86 | 2.0 | 3.0 | 0.00 | 0.00 | 0.00 | 77 | 1018.4 |
| 20260506125702 | 54 | 86 | 2.0 | 3.0 | 0.00 | 0.00 | 0.00 | 77 | 1018.3 |
| 20260506124702 | 54 | 92 | 1.0 | 3.0 | 0.00 | 0.00 | 0.00 | 77 | 1018.3 |
| 20260506123702 | 53 | 116 | 1.0 | 2.0 | 0.00 | 0.00 | 0.00 | 79 | 1018.2 |
| 20260506122702 | 53 | 117 | 0.0 | 1.0 | 0.00 | 0.00 | 0.00 | 81 | 1018.1 |
| 20260506121702 | 53 | 116 | 0.0 | 1.0 | 0.00 | 0.00 | 0.00 | 81 | 1018.1 |
| 20260506120702 | 53 | 116 | 0.0 | 0.0 | 0.00 | 0.00 | 0.00 | 82 | 1018.2 |
| 20260506115702 | 53 | 116 | 0.0 | 1.0 | 0.00 | 0.00 | 0.00 | 82 | 1018.0 |
| 20260506114702 | 53 | 116 | 0.0 | 0.0 | 0.00 | 0.00 | 0.00 | 82 | 1018.0 |
| 20260506113703 | 54 | 116 | 0.0 | 1.0 | 0.00 | 0.00 | 0.00 | 81 | 1018.0 |
| 20260506112702 | 54 | 116 | 0.0 | 1.0 | 0.00 | 0.00 | 0.00 | 80 | 1018.0 |
| 20260506111702 | 54 | 116 | 0.0 | 1.0 | 0.00 | 0.00 | 0.00 | 80 | 1018.0 |
| 20260506110702 | 55 | 116 | 0.0 | 1.0 | 0.00 | 0.00 | 0.00 | 80 | 1018.0 |
| 20260506105702 | 55 | 116 | 0.0 | 1.0 | 0.00 | 0.00 | 0.00 | 81 | 1018.0 |
| 20260506104702 | 55 | 116 | 1.0 | 1.0 | 0.00 | 0.00 | 0.00 | 81 | 1018.1 |
| 20260506103702 | 55 | 116 | 1.0 | 1.0 | 0.00 | 0.00 | 0.00 | 81 | 1018.0 |
| 20260506102702 | 56 | 117 | 1.0 | 3.0 | 0.00 | 0.00 | 0.00 | 81 | 1017.9 |
| 20260506101703 | 56 | 118 | 0.0 | 1.0 | 0.00 | 0.00 | 0.00 | 82 | 1018.0 |
| 20260506100702 | 56 | 126 | 0.0 | 1.0 | 0.00 | 0.00 | 0.00 | 83 | 1018.0 |
| 20260506095702 | 56 | 126 | 0.0 | 1.0 | 0.00 | 0.00 | 0.00 | 83 | 1018.0 |
| 20260506094702 | 56 | 126 | 0.0 | 1.0 | 0.00 | 0.00 | 0.00 | 83 | 1018.1 |
| 20260506093702 | 57 | 126 | 1.0 | 2.0 | 0.00 | 0.00 | 0.00 | 83 | 1017.9 |
| 20260506092702 | 57 | 133 | 1.0 | 2.0 | 0.00 | 0.00 | 0.00 | 84 | 1018.1 |
| 20260506091702 | 57 | 134 | 0.0 | 2.0 | 0.00 | 0.00 | 0.00 | 84 | 1018.1 |
| 20260506090702 | 56 | 134 | 1.0 | 2.0 | 0.00 | 0.00 | 0.00 | 86 | 1018.2 |
| 20260506085702 | 56 | 134 | 0.0 | 0.0 | 0.00 | 0.00 | 0.00 | 86 | 1018.3 |
| 20260506084702 | 56 | 134 | 1.0 | 1.0 | 0.00 | 0.00 | 0.00 | 86 | 1018.3 |
| 20260506083702 | 56 | 134 | 0.0 | 1.0 | 0.00 | 0.00 | 0.00 | 85 | 1018.3 |
| 20260506082702 | 56 | 134 | 1.0 | 2.0 | 0.00 | 0.00 | 0.00 | 85 | 1018.4 |
| 20260506081702 | 57 | 134 | 0.0 | 1.0 | 0.00 | 0.00 | 0.00 | 85 | 1018.4 |
| 20260506080702 | 57 | 134 | 1.0 | 2.0 | 0.00 | 0.00 | 0.00 | 84 | 1018.5 |